Volver al catálogo

STARLINK-31908

ActivoComunicacionesVLEO
NORAD 59901·PAYLOAD·🇺🇸 United States

Lanzado May 28, 2024 desde Cape Canaveral Space Force Station

Loading…

Próximos Pases (próximas 24 horas)

TLE

ActualizadoSource: CelesTrak SupGP

Época: Sep 14, 2026, 22:35 UTC

1 59901C 24100S   26257.94145833 -.00003123  00000+0 -11315-3 0  2571
2 59901  43.0005 129.5625 0001291 270.3362  27.2800 15.27572373    16

Sigue STARLINK-31908 en tiempo real con AllMySat

Download on the App Store